Location: Powder Track
(41.8531°N, 72.3584°W)
Time: 09:47:31
(UTC+00:00)

Transit 2A - All Passes

Search period start: 31 July 2021 00:00
Search period end: 10 August 2021 00:00
Orbit: 598 x 960 km, 66.7° (Epoch: 30 July)

Date Brightness Start Highest point End Pass type
(mag) Time Alt. Az. Time Alt. Az. Time Alt. Az.
31 Jul - 10:48:47 10° SSW 10:53:01 55° ESE 10:57:30 10° NE daylight
31 Jul - 12:33:23 10° W 12:36:34 19° NW 12:39:54 10° N daylight
31 Jul - 17:52:36 10° NNE 17:54:36 12° NE 17:56:40 10° ENE daylight
31 Jul - 19:33:31 10° NNW 19:38:54 55° NE 19:44:47 10° SE daylight
31 Jul - 21:17:21 10° WNW 21:21:50 25° WSW 21:26:36 10° SSW daylight
01 Aug - 10:15:01 10° S 10:18:56 34° ESE 10:23:05 10° NE daylight
01 Aug - 11:58:25 10° WSW 12:02:08 26° NW 12:06:05 10° N daylight
01 Aug - 18:59:28 10° NNW 19:04:37 40° NE 19:10:12 10° ESE daylight
01 Aug - 20:42:42 10° NW 20:47:47 35° WSW 20:53:13 10° S daylight
02 Aug - 09:41:33 10° SSE 09:44:55 22° ESE 09:48:27 10° ENE daylight
02 Aug - 11:23:41 10° WSW 11:27:47 37° NW 11:32:09 10° NNE daylight
02 Aug - 18:25:31 10° N 18:30:16 29° NE 18:35:24 10° ESE daylight
02 Aug - 20:08:17 10° NW 20:13:40 50° WSW 20:19:31 10° S daylight
03 Aug - 09:08:38 10° SE 09:10:58 14° ESE 09:13:22 10° ENE visible
03 Aug - 10:49:12 10° SW 10:53:29 56° WNW 10:58:06 10° NNE daylight
03 Aug - 17:51:38 10° N 17:55:52 22° NE 18:00:22 10° E daylight
03 Aug - 19:33:57 10° NW 19:39:32 72° WSW 19:45:35 10° SSE daylight
03 Aug - 21:21:21 10° W 21:21:57 10° WSW 21:22:33 10° WSW daylight
04 Aug - 10:14:54 10° SSW 10:19:16 86° WNW 10:23:57 10° NNE daylight
04 Aug - 12:01:04 10° WNW 12:03:16 13° NW 12:05:33 10° N daylight
04 Aug - 17:17:55 10° N 17:21:23 17° NE 17:25:05 10° E daylight
04 Aug - 18:59:45 10° NNW 19:05:20 82° ENE 19:11:26 10° SSE daylight
04 Aug - 20:44:39 10° WNW 20:48:00 16° WSW 20:51:29 10° SW daylight
05 Aug - 09:40:50 10° SSW 09:45:07 60° ESE 09:49:42 10° NE daylight
05 Aug - 11:25:39 10° W 11:28:45 18° NW 11:32:01 10° N daylight
05 Aug - 16:44:27 10° N 16:46:52 13° NE 16:49:22 10° ENE daylight
05 Aug - 18:25:37 10° NNW 18:31:06 59° ENE 18:37:05 10° SE daylight
05 Aug - 20:09:35 10° WNW 20:14:00 23° WSW 20:18:39 10° SSW daylight
06 Aug - 09:07:00 10° S 09:11:02 38° ESE 09:15:19 10° NE visible
06 Aug - 10:50:38 10° WSW 10:54:19 25° NW 10:58:13 10° N daylight
06 Aug - 17:51:33 10° NNW 17:56:50 43° NE 18:02:32 10° SE daylight
06 Aug - 19:34:55 10° NW 19:39:57 33° WSW 19:45:20 10° S daylight
07 Aug - 08:33:29 10° SSE 08:37:01 24° ESE 08:40:43 10° NE visible
07 Aug - 10:15:52 10° WSW 10:19:56 35° NW 10:24:17 10° NNE daylight
07 Aug - 17:17:34 10° NNW 17:22:29 31° NE 17:27:47 10° ESE daylight
07 Aug - 19:00:26 10° NW 19:05:51 47° WSW 19:11:41 10° S daylight
08 Aug - 08:00:25 10° SE 08:03:03 16° ESE 08:05:46 10° ENE visible
08 Aug - 09:41:19 10° SW 09:45:37 52° NW 09:50:16 10° NNE daylight
08 Aug - 16:43:40 10° N 16:48:06 24° NE 16:52:48 10° E daylight
08 Aug - 18:26:06 10° NW 18:31:43 67° WSW 18:37:47 10° SSE daylight
09 Aug - 09:07:00 10° SSW 09:11:23 80° WNW 09:16:08 10° NNE visible
09 Aug - 10:53:25 10° WNW 10:55:28 13° NW 10:57:36 10° N daylight
09 Aug - 16:09:54 10° N 16:13:38 18° NE 16:17:34 10° E daylight
09 Aug - 17:51:52 10° NNW 17:57:32 87° ENE 18:03:41 10° SSE daylight
09 Aug - 19:37:00 10° WNW 19:40:08 15° WSW 19:43:22 10° SW daylight
